Zurück zum Katalog

COSMOS 1932 DEB

AktivLEO
NORAD 28275·DEBRIS·🇷🇺 Russia

Gestartet Mar 14, 1988 von Baikonur Cosmodrome

Loading…

Nächste Überflüge (nächste 24 Stunden)

TLE

VeraltetSource: Space-Track

Epoche: Aug 27, 2026, 15:47 UTC

1 28275U 88019F   26239.65784900  .00000083  00000-0  15526-3 0  9994
2 28275  65.0426 246.1200 0052140 218.1725 253.4979 13.82844544653491

Verfolge COSMOS 1932 DEB in Echtzeit mit AllMySat

Download on the App Store